Погода в Бисау

Гвинея-Бисау     11°52′24″N   15°36′30″W
темп.,
°C
ветер,
м/с
пор.,
м/с
влажн.,
%
обл.,
%
осадки,
мм/ч
давл.,
гПа
погр.,
м
23 апреля, пт
пт2300:00+26зсз675920 0.0 1011317
03:00+25з335837 0.0 1009255
06:00+25зсз225753 0.0 1010242
09:00+26зсз225169 0.0 1012341
12:00+28юз224586 0.0 1012333
15:00+27юз855497 0.0 1009259
18:00+27юз9965100 0.0 1008424
21:00+26зюз897089 0.0 1010491
24 апреля, сб
сб2400:00+26з67694 0.0 1011426
03:00+24сз576424 0.0 1009357
06:00+24сз46636 0.0 1010287
09:00+25ссз34535 0.0 1012335
12:00+29зюз12365 0.0 1011318
15:00+27зюз84550 0.0 1008485
18:00+27зюз1011640 0.0 1008337
21:00+27з911590 0.0 1009368
25 апреля, вс
вс2500:00+26зсз79556 0.0 1010365
03:00+24сз46570 0.0 1009294
06:00+24сз445789 0.0 1010258
09:00+25сз22480 0.0 1012338
12:00+27зюз32455 0.0 1012405
15:00+26зюз73525 0.0 1009406
18:00+27зюз99655 0.0 1008331
21:00+26з8106395 0.0 1010337
26 апреля, пн
пн2600:00+25зсз710594 0.0 1011380
03:00+24зсз45610 0.0 1010286
06:00+24сз34631 0.0 1011261
09:00+25ссз33545 0.0 1013337
12:00+27зюз22411 0.0 1012345
15:00+26зюз74565 0.0 1008480
18:00+28з9106413 0.0 1006238
21:00+27з912635 0.0 1008281
27 апреля, вт
вт2700:00+27зсз79575 0.0 1009331
03:00+25зсз45605 0.0 1008308
06:00+24зсз44595 0.0 1010268
09:00+25ссз22495 0.0 1012324
12:00+28з23395 0.0 1011360
15:00+26зюз95637 0.0 1008353
18:00+27з1212665 0.0 1006319
21:00+27зсз9126016 0.0 1008401